QPF
0.02 0.03 0.05 0.04 0.01 0.00 0.00 0.00 0.00 0.00 0.00 0.00 0.00 0.00 0.00 0.00 0.00 0.00 0.00 0.00 0.00 0.00 0.00 0.00 0.01 0.00 0.00 0.00 0.00 0.00 0.00 0.01 0.01 0.02 0.04 0.04 0.03 0.05 0.06 0.07 0.06 0.04 0.05
0.01 0.02 0.05 0.06 0.03 0.01 0.00 0.00 0.00 0.00 0.00 0.00 0.00 0.00 0.00 0.00 0.00 0.00 0.00 0.00 0.00 0.00 0.00 0.00 0.00 0.00 0.00 0.00 0.00 0.00 0.00 0.01 0.02 0.04 0.07 0.07 0.07 0.08 0.07 0.06 0.06 0.05 0.05
0.01 0.01 0.03 0.05 0.03 0.01 0.00 0.00 0.00 0.00 0.00 0.00 0.00 0.00 0.00 0.00 0.00 0.00 0.00 0.00 0.00 0.00 0.00 0.00 0.00 0.00 0.00 0.00 0.00 0.00 0.01 0.02 0.03 0.03 0.04 0.03 0.07 0.10 0.07 0.07 0.07 0.04 0.04
0.01 0.01 0.01 0.03 0.03 0.01 0.01 0.01 0.01 0.01 0.00 0.00 0.00 0.00 0.00 0.00 0.00 0.00 0.00 0.00 0.00 0.00 0.00 0.00 0.00 0.00 0.00 0.00 0.00 0.01 0.02 0.04 0.04 0.02 0.00 0.01 0.02 0.07 0.07 0.06 0.05 0.03 0.03
0.01 0.01 0.01 0.02 0.02 0.02 0.01 0.01 0.01 0.00 0.00 0.00 0.00 0.00 0.00 0.00 0.00 0.00 0.00 0.00 0.00 0.00 0.00 0.00 0.00 0.00 0.00 0.00 0.01 0.02 0.03 0.04 0.05 0.02 0.00 0.00 0.02 0.05 0.05 0.05 0.04 0.02 0.02
0.01 0.01 0.02 0.02 0.02 0.02 0.01 0.01 0.01 0.01 0.00 0.00 0.00 0.00 0.00 0.01 0.01 0.01 0.01 0.01 0.00 0.00 0.00 0.00 0.00 0.00 0.00 0.00 0.01 0.01 0.03 0.05 0.03 0.01 0.00 0.00 0.01 0.04 0.04 0.03 0.02 0.01 0.01
0.02 0.02 0.02 0.02 0.02 0.02 0.01 0.01 0.01 0.01 0.00 0.00 0.00 0.00 0.01 0.01 0.01 0.01 0.01 0.01 0.01 0.01 0.01 0.01 0.00 0.00 0.00 0.01 0.01 0.02 0.03 0.04 0.02 0.01 0.01 0.01 0.01 0.03 0.03 0.02 0.01 0.01 0.01
0.02 0.01 0.01 0.02 0.02 0.02 0.01 0.01 0.00 0.00 0.00 0.00 0.00 0.01 0.01 0.01 0.01 0.01 0.02 0.02 0.01 0.01 0.01 0.01 0.01 0.01 0.00 0.00 0.01 0.02 0.03 0.03 0.01 0.01 0.01 0.01 0.02 0.04 0.03 0.02 0.02 0.01 0.01
0.03 0.02 0.01 0.01 0.01 0.02 0.01 0.01 0.00 0.00 0.00 0.00 0.00 0.01 0.01 0.01 0.01 0.02 0.02 0.02 0.01 0.02 0.02 0.02 0.01 0.01 0.01 0.01 0.01 0.01 0.02 0.03 0.02 0.01 0.01 0.01 0.03 0.05 0.04 0.02 0.02 0.01 0.00
0.04 0.04 0.02 0.01 0.01 0.01 0.01 0.01 0.01 0.01 0.01 0.01 0.01 0.02 0.03 0.03 0.03 0.04 0.04 0.05 0.05 0.05 0.05 0.05 0.04 0.04 0.04 0.02 0.02 0.01 0.02 0.01 0.01 0.01 0.01 0.01 0.04 0.06 0.05 0.03 0.02 0.01 0.00
0.03 0.03 0.03 0.02 0.01 0.01 0.01 0.01 0.02 0.01 0.02 0.02 0.02 0.03 0.03 0.02 0.03 0.05 0.07 0.09 0.09 0.08 0.09 0.08 0.08 0.08 0.06 0.04 0.04 0.03 0.02 0.01 0.01 0.01 0.01 0.01 0.04 0.07 0.08 0.05 0.03 0.02 0.01
0.03 0.03 0.03 0.02 0.01 0.01 0.01 0.01 0.02 0.02 0.02 0.02 0.02 0.03 0.02 0.02 0.03 0.04 0.07 0.11 0.11 0.11 0.10 0.11 0.11 0.08 0.06 0.04 0.04 0.04 0.02 0.02 0.01 0.02 0.02 0.02 0.04 0.07 0.09 0.08 0.06 0.04 0.02
0.08 0.05 0.03 0.03 0.03 0.02 0.02 0.02 0.02 0.03 0.03 0.03 0.04 0.03 0.03 0.03 0.04 0.06 0.07 0.08 0.09 0.08 0.08 0.08 0.07 0.05 0.05 0.05 0.04 0.03 0.03 0.03 0.02 0.02 0.02 0.03 0.05 0.08 0.11 0.10 0.09 0.07 0.05
0.12 0.10 0.08 0.07 0.07 0.06 0.05 0.05 0.05 0.05 0.04 0.04 0.03 0.02 0.02 0.03 0.04 0.04 0.05 0.04 0.03 0.04 0.04 0.04 0.05 0.05 0.05 0.05 0.06 0.06 0.05 0.04 0.05 0.03 0.02 0.04 0.07 0.09 0.13 0.13 0.11 0.10 0.09
0.17 0.16 0.15 0.11 0.12 0.11 0.08 0.06 0.06 0.07 0.07 0.06 0.05 0.04 0.04 0.03 0.04 0.04 0.03 0.03 0.02 0.02 0.02 0.02 0.03 0.04 0.04 0.04 0.04 0.06 0.05 0.04 0.05 0.05 0.03 0.05 0.08 0.12 0.14 0.17 0.16 0.13 0.12
0.19 0.22 0.22 0.17 0.13 0.12 0.09 0.06 0.07 0.07 0.06 0.05 0.04 0.05 0.03 0.02 0.02 0.01 0.01 0.02 0.02 0.01 0.01 0.01 0.02 0.02 0.02 0.03 0.03 0.04 0.05 0.05 0.03 0.03 0.04 0.05 0.08 0.10 0.13 0.18 0.20 0.18 0.15
0.22 0.22 0.20 0.17 0.13 0.10 0.07 0.06 0.05 0.04 0.04 0.04 0.03 0.03 0.01 0.00 0.00 0.00 0.00 0.01 0.01 0.00 0.00 0.00 0.00 0.01 0.01 0.01 0.01 0.01 0.01 0.03 0.03 0.02 0.02 0.04 0.04 0.07 0.09 0.14 0.17 0.18 0.20
0.26 0.23 0.20 0.15 0.12 0.09 0.06 0.04 0.03 0.04 0.04 0.03 0.02 0.02 0.01 0.00 0.00 0.00 0.00 0.00 0.00 0.00 0.00 0.00 0.00 0.00 0.00 0.00 0.01 0.01 0.01 0.01 0.01 0.01 0.01 0.02 0.04 0.04 0.06 0.11 0.15 0.15 0.18
0.31 0.25 0.20 0.17 0.14 0.08 0.05 0.03 0.03 0.04 0.04 0.03 0.01 0.01 0.00 0.00 0.00 0.00 0.00 0.00 0.00 0.00 0.00 0.00 0.00 0.00 0.00 0.00 0.00 0.00 0.00 0.01 0.00 0.00 0.01 0.01 0.02 0.03 0.03 0.05 0.12 0.16 0.17
0.29 0.25 0.19 0.14 0.10 0.06 0.04 0.03 0.02 0.02 0.02 0.01 0.00 0.00 0.00 0.00 0.00 0.00 0.00 0.00 0.00 0.00 0.00 0.00 0.00 0.00 0.00 0.00 0.00 0.00 0.00 0.00 0.00 0.00 0.00 0.00 0.01 0.01 0.02 0.03 0.05 0.08 0.13
0.21 0.18 0.13 0.09 0.06 0.04 0.03 0.03 0.02 0.01 0.01 0.00 0.00 0.00 0.00 0.00 0.00 0.00 0.00 0.00 0.00 0.00 0.00 0.00 0.00 0.00 0.00 0.00 0.00 0.00 0.00 0.00 0.00 0.00 0.00 0.00 0.00 0.01 0.02 0.03 0.04 0.04 0.05
0.16 0.13 0.11 0.07 0.04 0.03 0.02 0.01 0.01 0.00 0.00 0.00 0.00 0.00 0.00 0.00 0.00 0.00 0.00 0.00 0.00 0.00 0.00 0.00 0.00 0.00 0.00 0.00 0.00 0.00 0.00 0.00 0.00 0.00 0.00 0.00 0.00 0.01 0.01 0.02 0.03 0.03 0.04
0.14 0.09 0.06 0.05 0.03 0.02 0.01 0.00 0.00 0.00 0.00 0.00 0.00 0.00 0.00 0.00 0.00 0.00 0.00 0.00 0.00 0.00 0.00 0.00 0.00 0.00 0.00 0.00 0.00 0.00 0.00 0.00 0.00 0.00 0.00 0.00 0.00 0.00 0.00 0.01 0.01 0.02 0.02
0.07 0.05 0.03 0.03 0.02 0.01 0.01 0.00 0.00 0.00 0.00 0.00 0.00 0.00 0.00 0.00 0.00 0.00 0.00 0.00 0.00 0.00 0.00 0.00 0.00 0.00 0.00 0.00 0.00 0.00 0.00 0.00 0.00 0.00 0.00 0.00 0.00 0.00 0.00 0.00 0.00 0.01 0.01
0.03 0.03 0.02 0.02 0.01 0.01 0.01 0.00 0.00 0.00 0.00 0.00 0.00 0.00 0.00 0.00 0.00 0.00 0.00 0.00 0.00 0.00 0.00 0.00 0.00 0.00 0.00 0.00 0.00 0.00 0.00 0.00 0.00 0.00 0.00 0.00 0.00 0.00 0.00 0.00 0.00 0.00 0.00
0.02 0.01 0.01 0.01 0.01 0.00 0.00 0.00 0.00 0.00 0.00 0.00 0.00 0.00 0.00 0.00 0.00 0.00 0.00 0.00 0.00 0.00 0.00 0.00 0.00 0.00 0.00 0.00 0.00 0.00 0.00 0.00 0.00 0.00 0.00 0.00 0.00 0.00 0.00 0.00 0.00 0.00 0.00
MSLP
1013.68 1013.31 1013.09 1013.07 1013.23 1013.51 1013.87 1014.22 1014.52 1014.74 1014.88 1014.95 1015.01 1015.09 1015.21 1015.39 1015.61 1015.84 1016.06 1016.23 1016.34 1016.39 1016.40 1016.40 1016.41 1016.44 1016.49 1016.55 1016.62 1016.67 1016.69 1016.69 1016.67 1016.66 1016.68 1016.73 1016.83 1016.97 1017.14 1017.32 1017.49 1017.65 1017.81
1013.55 1013.24 1013.09 1013.12 1013.32 1013.63 1014.00 1014.37 1014.69 1014.94 1015.11 1015.24 1015.35 1015.48 1015.64 1015.84 1016.06 1016.28 1016.46 1016.59 1016.68 1016.71 1016.72 1016.72 1016.73 1016.76 1016.80 1016.84 1016.87 1016.88 1016.86 1016.84 1016.82 1016.82 1016.87 1016.96 1017.09 1017.25 1017.43 1017.60 1017.76 1017.90 1018.04
1013.41 1013.17 1013.09 1013.18 1013.42 1013.77 1014.16 1014.54 1014.88 1015.15 1015.37 1015.54 1015.70 1015.87 1016.06 1016.26 1016.47 1016.65 1016.78 1016.87 1016.92 1016.93 1016.93 1016.94 1016.96 1017.00 1017.03 1017.06 1017.07 1017.05 1017.01 1016.98 1016.97 1017.00 1017.08 1017.21 1017.38 1017.56 1017.74 1017.90 1018.05 1018.17 1018.30
1013.29 1013.15 1013.15 1013.31 1013.59 1013.96 1014.36 1014.74 1015.09 1015.37 1015.61 1015.82 1016.01 1016.21 1016.41 1016.61 1016.78 1016.92 1017.01 1017.06 1017.07 1017.07 1017.07 1017.09 1017.13 1017.18 1017.22 1017.24 1017.24 1017.21 1017.17 1017.14 1017.15 1017.21 1017.33 1017.49 1017.69 1017.89 1018.07 1018.22 1018.35 1018.46 1018.57
1013.24 1013.21 1013.30 1013.52 1013.84 1014.22 1014.61 1014.98 1015.30 1015.58 1015.82 1016.04 1016.25 1016.46 1016.67 1016.86 1017.01 1017.11 1017.16 1017.17 1017.16 1017.16 1017.17 1017.21 1017.27 1017.34 1017.39 1017.42 1017.41 1017.38 1017.34 1017.32 1017.35 1017.44 1017.59 1017.79 1018.01 1018.21 1018.39 1018.53 1018.64 1018.73 1018.83
1013.28 1013.35 1013.53 1013.81 1014.16 1014.54 1014.90 1015.23 1015.52 1015.76 1015.98 1016.19 1016.40 1016.62 1016.83 1017.01 1017.15 1017.23 1017.26 1017.26 1017.24 1017.24 1017.27 1017.33 1017.42 1017.51 1017.58 1017.61 1017.61 1017.57 1017.54 1017.53 1017.58 1017.69 1017.86 1018.08 1018.30 1018.51 1018.67 1018.80 1018.89 1018.97 1019.07
1013.40 1013.57 1013.83 1014.16 1014.53 1014.89 1015.22 1015.49 1015.71 1015.89 1016.07 1016.26 1016.47 1016.70 1016.92 1017.11 1017.25 1017.33 1017.36 1017.36 1017.35 1017.36 1017.41 1017.50 1017.60 1017.71 1017.79 1017.83 1017.82 1017.79 1017.75 1017.75 1017.80 1017.92 1018.10 1018.31 1018.54 1018.73 1018.89 1019.00 1019.08 1019.15 1019.25
1013.57 1013.83 1014.16 1014.53 1014.90 1015.24 1015.51 1015.71 1015.86 1015.99 1016.12 1016.29 1016.50 1016.73 1016.97 1017.18 1017.35 1017.45 1017.49 1017.50 1017.50 1017.53 1017.59 1017.69 1017.81 1017.92 1018.00 1018.04 1018.03 1018.00 1017.96 1017.95 1017.99 1018.10 1018.27 1018.48 1018.69 1018.87 1019.01 1019.11 1019.18 1019.26 1019.37
1013.76 1014.08 1014.46 1014.86 1015.24 1015.54 1015.76 1015.90 1015.98 1016.05 1016.15 1016.30 1016.51 1016.77 1017.04 1017.28 1017.48 1017.60 1017.66 1017.68 1017.69 1017.72 1017.78 1017.88 1018.00 1018.11 1018.19 1018.22 1018.21 1018.16 1018.12 1018.09 1018.12 1018.22 1018.37 1018.55 1018.74 1018.91 1019.04 1019.14 1019.21 1019.30 1019.42
1013.90 1014.28 1014.70 1015.13 1015.50 1015.78 1015.95 1016.04 1016.08 1016.11 1016.19 1016.34 1016.57 1016.85 1017.16 1017.44 1017.66 1017.80 1017.87 1017.89 1017.89 1017.90 1017.95 1018.03 1018.13 1018.23 1018.31 1018.34 1018.32 1018.27 1018.21 1018.17 1018.18 1018.26 1018.38 1018.54 1018.71 1018.87 1019.00 1019.10 1019.19 1019.29 1019.43
1014.00 1014.40 1014.86 1015.30 1015.67 1015.94 1016.09 1016.15 1016.17 1016.19 1016.27 1016.44 1016.69 1017.01 1017.34 1017.65 1017.89 1018.04 1018.10 1018.10 1018.07 1018.05 1018.06 1018.11 1018.19 1018.28 1018.35 1018.37 1018.36 1018.31 1018.25 1018.20 1018.19 1018.24 1018.34 1018.47 1018.63 1018.78 1018.91 1019.03 1019.13 1019.25 1019.41
1014.02 1014.45 1014.93 1015.38 1015.76 1016.03 1016.17 1016.23 1016.26 1016.29 1016.40 1016.60 1016.88 1017.23 1017.60 1017.92 1018.17 1018.31 1018.34 1018.31 1018.23 1018.16 1018.13 1018.13 1018.18 1018.25 1018.31 1018.35 1018.34 1018.30 1018.24 1018.19 1018.17 1018.19 1018.27 1018.39 1018.53 1018.68 1018.82 1018.95 1019.08 1019.21 1019.38
1013.99 1014.44 1014.93 1015.39 1015.77 1016.04 1016.21 1016.29 1016.35 1016.42 1016.57 1016.81 1017.14 1017.51 1017.90 1018.23 1018.46 1018.58 1018.58 1018.50 1018.38 1018.25 1018.16 1018.12 1018.14 1018.19 1018.25 1018.29 1018.31 1018.28 1018.24 1018.19 1018.16 1018.16 1018.22 1018.31 1018.44 1018.59 1018.74 1018.88 1019.03 1019.18 1019.35
1013.93 1014.38 1014.86 1015.32 1015.71 1016.00 1016.20 1016.33 1016.44 1016.57 1016.77 1017.05 1017.41 1017.82 1018.21 1018.54 1018.76 1018.86 1018.82 1018.70 1018.52 1018.35 1018.20 1018.12 1018.11 1018.15 1018.21 1018.26 1018.30 1018.30 1018.27 1018.22 1018.18 1018.17 1018.20 1018.27 1018.38 1018.52 1018.67 1018.83 1018.98 1019.14 1019.31
1013.87 1014.30 1014.77 1015.22 1015.61 1015.92 1016.16 1016.35 1016.52 1016.71 1016.97 1017.30 1017.69 1018.10 1018.50 1018.82 1019.03 1019.11 1019.06 1018.91 1018.70 1018.49 1018.31 1018.20 1018.16 1018.18 1018.24 1018.31 1018.36 1018.37 1018.36 1018.32 1018.27 1018.24 1018.24 1018.28 1018.36 1018.48 1018.62 1018.77 1018.92 1019.07 1019.23
1013.83 1014.22 1014.66 1015.09 1015.48 1015.82 1016.10 1016.35 1016.58 1016.84 1017.15 1017.52 1017.92 1018.35 1018.74 1019.06 1019.27 1019.35 1019.30 1019.15 1018.93 1018.71 1018.51 1018.38 1018.32 1018.33 1018.38 1018.45 1018.50 1018.53 1018.52 1018.47 1018.41 1018.35 1018.32 1018.32 1018.36 1018.44 1018.55 1018.68 1018.82 1018.95 1019.08
1013.82 1014.17 1014.56 1014.96 1015.34 1015.71 1016.04 1016.35 1016.65 1016.97 1017.32 1017.70 1018.12 1018.53 1018.92 1019.23 1019.45 1019.55 1019.52 1019.40 1019.21 1019.01 1018.82 1018.68 1018.60 1018.59 1018.63 1018.69 1018.74 1018.76 1018.74 1018.68 1018.60 1018.51 1018.43 1018.38 1018.37 1018.41 1018.47 1018.56 1018.66 1018.76 1018.86
1013.87 1014.15 1014.48 1014.85 1015.23 1015.61 1015.99 1016.37 1016.73 1017.10 1017.47 1017.86 1018.26 1018.66 1019.03 1019.34 1019.57 1019.70 1019.73 1019.66 1019.52 1019.36 1019.19 1019.06 1018.97 1018.94 1018.96 1018.99 1019.03 1019.04 1019.00 1018.93 1018.82 1018.69 1018.56 1018.46 1018.39 1018.37 1018.38 1018.41 1018.46 1018.52 1018.57
1013.95 1014.17 1014.44 1014.77 1015.15 1015.57 1016.00 1016.43 1016.84 1017.25 1017.63 1018.01 1018.38 1018.74 1019.08 1019.39 1019.63 1019.80 1019.89 1019.89 1019.83 1019.72 1019.59 1019.47 1019.39 1019.34 1019.33 1019.34 1019.35 1019.34 1019.29 1019.19 1019.06 1018.89 1018.72 1018.56 1018.43 1018.34 1018.29 1018.26 1018.25 1018.25 1018.26
1014.07 1014.22 1014.44 1014.75 1015.13 1015.58 1016.06 1016.54 1017.01 1017.44 1017.82 1018.17 1018.50 1018.81 1019.10 1019.39 1019.64 1019.85 1020.00 1020.08 1020.09 1020.05 1019.97 1019.88 1019.80 1019.74 1019.70 1019.68 1019.67 1019.64 1019.58 1019.47 1019.32 1019.13 1018.92 1018.71 1018.52 1018.36 1018.24 1018.15 1018.08 1018.03 1017.98
1014.20 1014.30 1014.48 1014.78 1015.17 1015.66 1016.19 1016.72 1017.23 1017.67 1018.05 1018.36 1018.63 1018.87 1019.11 1019.36 1019.61 1019.85 1020.05 1020.20 1020.29 1020.32 1020.29 1020.23 1020.16 1020.09 1020.04 1020.01 1019.98 1019.94 1019.87 1019.76 1019.60 1019.40 1019.16 1018.92 1018.68 1018.46 1018.28 1018.13 1018.00 1017.88 1017.78
1014.33 1014.40 1014.56 1014.85 1015.27 1015.79 1016.36 1016.94 1017.48 1017.93 1018.29 1018.56 1018.77 1018.94 1019.12 1019.33 1019.56 1019.81 1020.05 1020.26 1020.41 1020.50 1020.53 1020.51 1020.45 1020.39 1020.34 1020.30 1020.27 1020.23 1020.17 1020.07 1019.92 1019.71 1019.46 1019.19 1018.92 1018.66 1018.42 1018.21 1018.02 1017.86 1017.70
1014.45 1014.51 1014.67 1014.97 1015.40 1015.94 1016.55 1017.17 1017.73 1018.19 1018.53 1018.76 1018.91 1019.03 1019.15 1019.31 1019.51 1019.75 1020.02 1020.26 1020.47 1020.61 1020.68 1020.69 1020.66 1020.62 1020.58 1020.55 1020.53 1020.51 1020.47 1020.39 1020.26 1020.06 1019.82 1019.54 1019.24 1018.94 1018.66 1018.41 1018.17 1017.95 1017.75
1014.55 1014.62 1014.79 1015.08 1015.52 1016.08 1016.71 1017.35 1017.92 1018.39 1018.72 1018.93 1019.05 1019.12 1019.19 1019.30 1019.47 1019.70 1019.97 1020.23 1020.47 1020.64 1020.75 1020.79 1020.79 1020.77 1020.75 1020.75 1020.75 1020.76 1020.75 1020.70 1020.60 1020.42 1020.19 1019.91 1019.60 1019.28 1018.96 1018.67 1018.40 1018.14 1017.90
1014.62 1014.72 1014.88 1015.17 1015.60 1016.16 1016.79 1017.43 1018.02 1018.50 1018.83 1019.04 1019.14 1019.18 1019.22 1019.31 1019.45 1019.66 1019.92 1020.18 1020.42 1020.62 1020.75 1020.82 1020.85 1020.85 1020.86 1020.88 1020.92 1020.96 1020.98 1020.97 1020.89 1020.74 1020.52 1020.24 1019.93 1019.60 1019.27 1018.95 1018.64 1018.36 1018.08
1014.65 1014.77 1014.93 1015.21 1015.61 1016.14 1016.76 1017.39 1017.98 1018.47 1018.83 1019.04 1019.16 1019.21 1019.24 1019.31 1019.44 1019.63 1019.86 1020.11 1020.35 1020.54 1020.68 1020.77 1020.82 1020.85 1020.88 1020.93 1021.00 1021.07 1021.12 1021.13 1021.08 1020.95 1020.75 1020.49 1020.18 1019.84 1019.50 1019.17 1018.85 1018.54 1018.24
Thickness
5782 5782 5780 5778 5776 5775 5774 5773 5771 5771 5770 5769 5768 5766 5765 5764 5763 5762 5761 5760 5759 5758 5758 5756 5756 5755 5754 5754 5753 5752 5752 5751 5749 5749 5748 5747 5745 5744 5744 5743 5742 5741 5740
5786 5782 5779 5777 5775 5774 5772 5771 5769 5768 5767 5766 5765 5764 5763 5761 5760 5760 5759 5758 5757 5756 5755 5754 5753 5752 5752 5751 5751 5750 5749 5749 5748 5747 5746 5745 5743 5742 5742 5741 5740 5739 5738
5785 5782 5779 5776 5774 5772 5770 5768 5767 5766 5764 5763 5762 5761 5760 5758 5757 5756 5755 5755 5754 5753 5752 5751 5750 5749 5749 5748 5748 5747 5747 5746 5746 5745 5744 5742 5741 5740 5740 5739 5738 5737 5736
5783 5781 5778 5775 5773 5771 5769 5767 5765 5764 5762 5761 5759 5758 5757 5755 5754 5753 5752 5751 5751 5750 5749 5748 5747 5746 5746 5745 5745 5745 5744 5744 5743 5743 5741 5740 5740 5739 5738 5737 5736 5735 5734
5781 5778 5776 5773 5771 5769 5767 5765 5764 5762 5760 5758 5757 5755 5754 5752 5751 5750 5749 5748 5747 5746 5745 5745 5744 5743 5742 5742 5742 5742 5742 5742 5741 5740 5739 5739 5738 5737 5736 5735 5734 5733 5732
5777 5776 5773 5771 5769 5767 5765 5763 5762 5760 5758 5756 5754 5753 5751 5750 5748 5747 5746 5745 5744 5743 5742 5741 5741 5740 5739 5739 5739 5739 5739 5739 5739 5738 5737 5736 5736 5735 5735 5734 5732 5731 5731
5773 5772 5770 5768 5767 5765 5762 5760 5759 5758 5756 5754 5752 5750 5749 5748 5746 5744 5743 5742 5741 5739 5738 5738 5737 5737 5736 5736 5736 5736 5737 5737 5736 5735 5735 5734 5734 5733 5733 5732 5731 5730 5729
5771 5769 5766 5765 5764 5762 5760 5758 5757 5755 5754 5752 5749 5748 5746 5745 5743 5742 5740 5739 5737 5736 5735 5734 5733 5733 5733 5732 5732 5733 5733 5734 5733 5733 5732 5732 5731 5731 5730 5730 5729 5728 5727
5767 5765 5763 5761 5760 5759 5757 5756 5754 5753 5751 5749 5747 5745 5743 5742 5740 5739 5737 5736 5734 5733 5731 5730 5730 5730 5729 5729 5729 5729 5730 5730 5730 5730 5730 5730 5729 5729 5728 5728 5727 5727 5726
5762 5761 5760 5758 5757 5755 5754 5752 5751 5750 5748 5746 5744 5742 5740 5739 5737 5735 5734 5733 5731 5730 5728 5727 5727 5726 5726 5726 5726 5726 5727 5727 5727 5727 5727 5727 5727 5726 5726 5725 5725 5724 5724
5757 5757 5756 5755 5753 5752 5751 5749 5747 5746 5744 5742 5741 5739 5737 5736 5734 5732 5731 5730 5729 5727 5726 5725 5724 5724 5723 5723 5723 5723 5723 5724 5724 5724 5725 5725 5725 5725 5724 5723 5722 5722 5722
5753 5754 5754 5752 5750 5749 5747 5746 5744 5743 5741 5739 5737 5736 5734 5733 5731 5730 5728 5727 5726 5725 5724 5723 5722 5721 5721 5720 5720 5720 5721 5721 5721 5721 5722 5723 5723 5723 5722 5721 5720 5720 5720
5750 5751 5751 5749 5747 5746 5744 5742 5740 5739 5737 5735 5734 5732 5731 5729 5728 5726 5724 5723 5723 5722 5721 5720 5719 5718 5718 5717 5717 5718 5718 5718 5718 5719 5720 5720 5721 5720 5720 5719 5718 5718 5718
5746 5746 5747 5746 5744 5743 5741 5739 5737 5735 5733 5732 5730 5729 5728 5726 5724 5722 5721 5720 5719 5718 5717 5716 5716 5715 5714 5714 5714 5715 5715 5715 5716 5716 5717 5718 5718 5718 5718 5717 5716 5716 5715
5743 5744 5744 5743 5741 5739 5738 5736 5734 5732 5731 5729 5727 5726 5725 5723 5721 5719 5717 5716 5715 5715 5714 5713 5712 5712 5711 5711 5711 5712 5712 5713 5713 5713 5715 5715 5716 5716 5716 5715 5715 5714 5714
5740 5741 5742 5741 5739 5737 5736 5734 5732 5730 5728 5727 5725 5723 5721 5720 5717 5716 5714 5713 5712 5711 5711 5710 5709 5709 5708 5708 5708 5708 5709 5710 5710 5711 5712 5713 5713 5714 5714 5713 5712 5712 5711
5738 5740 5740 5738 5737 5736 5734 5732 5730 5728 5726 5724 5722 5720 5718 5716 5714 5712 5711 5709 5708 5708 5707 5706 5705 5705 5705 5704 5704 5705 5706 5706 5708 5709 5709 5710 5711 5711 5711 5711 5710 5710 5710
5736 5736 5737 5736 5734 5734 5732 5730 5728 5726 5723 5721 5719 5717 5715 5713 5711 5709 5707 5705 5705 5704 5703 5702 5701 5700 5699 5699 5700 5701 5702 5703 5704 5706 5707 5707 5708 5708 5709 5708 5708 5708 5709
5735 5734 5733 5733 5732 5732 5730 5728 5725 5723 5720 5718 5716 5714 5712 5710 5708 5706 5704 5702 5701 5700 5699 5699 5696 5696 5695 5695 5696 5697 5698 5699 5700 5702 5704 5705 5706 5706 5706 5706 5706 5707 5707
5732 5732 5730 5730 5729 5729 5727 5724 5722 5719 5717 5715 5713 5711 5709 5707 5705 5703 5701 5699 5698 5696 5695 5694 5692 5691 5690 5690 5692 5693 5693 5694 5696 5697 5699 5701 5702 5703 5703 5704 5704 5704 5705
5730 5730 5729 5728 5728 5727 5724 5721 5718 5715 5713 5712 5711 5709 5707 5704 5703 5701 5698 5696 5694 5693 5691 5690 5689 5688 5686 5686 5687 5686 5688 5689 5690 5691 5693 5695 5697 5698 5699 5700 5701 5701 5702
5729 5729 5728 5728 5727 5726 5724 5722 5718 5715 5712 5710 5709 5707 5705 5703 5701 5699 5697 5694 5692 5690 5688 5687 5686 5684 5682 5681 5680 5679 5678 5680 5684 5686 5687 5688 5690 5692 5693 5695 5696 5697 5698
5729 5729 5730 5727 5727 5725 5723 5720 5716 5713 5710 5708 5706 5704 5703 5701 5700 5698 5695 5692 5690 5688 5686 5684 5683 5681 5678 5677 5676 5675 5672 5671 5673 5677 5679 5680 5682 5684 5686 5688 5690 5692 5693
5731 5731 5730 5727 5726 5724 5722 5719 5716 5711 5708 5707 5705 5704 5702 5700 5698 5696 5694 5691 5688 5686 5684 5682 5680 5678 5676 5673 5672 5670 5669 5668 5667 5668 5672 5673 5675 5677 5678 5681 5683 5685 5687
5733 5731 5729 5727 5725 5723 5721 5719 5716 5711 5709 5707 5705 5702 5700 5699 5697 5695 5693 5690 5687 5684 5682 5680 5677 5675 5672 5670 5668 5666 5664 5662 5661 5661 5661 5664 5667 5670 5671 5673 5675 5678 5680
5734 5732 5729 5726 5724 5722 5720 5718 5715 5712 5708 5705 5703 5700 5698 5697 5695 5694 5691 5688 5685 5682 5680 5677 5674 5672 5669 5666 5664 5662 5660 5658 5656 5654 5653 5654 5656 5661 5664 5666 5668 5670 5672